T 2010 May 3.171 TT MPC q 1.08553 (2000.0) P Q Peri. 83.751 -0.574177 -0.791423 Node 316.404 -0.818339 +0.546839 e 1.0 Incl. 162.297 -0.025324 +0.273161 From 41 observations 2010 May 12-21.
m1 = 19.0 + 5 log d + 10.0 log r